Main page
METAR-TAF:

METAR-TAF

Airports :

Oil platform

Ula, Norway

latitude: 59-06-39N, longitude: 2-50-45E, elevation: 0 m

Current weather observation

The report was made 19 minutes ago, at 20:50 UTC
Wind 33 kt from the East/Southeast
Temperature 7°C
Humidity 70%
Pressure 1024 hPa
Visibility 10 km or more

METAR: ENLA 212050Z AUTO 11033KT 9999NDV BKN024/// 07/02 Q1024 W///S5

Time: 22:09 (21:09 UTC)


TAF: missing

Weather observations and forecasts of more than 4000 airports (METAR and TAF reports).

The available stations are represented by yellow and red dots on the map.

Hover mouse over dot to see the name of the station.

Then click to see weather observations and forecasts.

To change the map : click on the green buttons with a black cross to zoom in, on the green button with a dash to zoom out, or on the green arrows for adjacent maps.


METAR-TAF: